TimeCEST,TemperatureF,Dew PointF,Humidity,Sea Level PressureIn,VisibilityMPH,Wind Direction,Wind SpeedMPH,Gust SpeedMPH,PrecipitationIn,Events,Conditions,WindDirDegrees,DateUTC
12:00 AM,69.8,48.2,46,29.92,-9999.0,NE,5.8,-,N/A,,Clear,50,2013-08-24 22:00:00
12:30 AM,68.0,50.0,52,29.92,-9999.0,ENE,5.8,-,N/A,,Clear,70,2013-08-24 22:30:00
1:00 AM,68.0,48.2,49,29.92,6.2,NE,6.9,-,N/A,Rain,Light Rain,40,2013-08-24 23:00:00
1:30 AM,68.0,48.2,49,29.92,-9999.0,NNE,5.8,-,N/A,,Clear,30,2013-08-24 23:30:00
2:00 AM,68.0,48.2,49,29.92,-9999.0,NNE,4.6,-,N/A,,Clear,30,2013-08-25 00:00:00
2:30 AM,66.2,50.0,56,29.92,-9999.0,North,4.6,-,N/A,,Clear,10,2013-08-25 00:30:00
3:00 AM,66.2,50.0,56,29.92,-9999.0,Variable,1.2,-,N/A,,Clear,0,2013-08-25 01:00:00
3:30 AM,66.2,50.0,56,29.92,-9999.0,Variable,3.5,-,N/A,,Clear,0,2013-08-25 01:30:00
4:00 AM,64.4,50.0,59,29.89,-9999.0,Variable,3.5,-,N/A,,Clear,0,2013-08-25 02:00:00
4:30 AM,64.4,51.8,64,29.89,-9999.0,Variable,3.5,-,N/A,,Clear,0,2013-08-25 02:30:00
5:00 AM,64.4,50.0,59,29.89,-9999.0,Variable,2.3,-,N/A,,Clear,0,2013-08-25 03:00:00
5:30 AM,64.4,51.8,64,29.89,-9999.0,Variable,2.3,-,N/A,,Clear,0,2013-08-25 03:30:00
6:00 AM,62.6,51.8,68,29.89,-9999.0,Variable,1.2,-,N/A,,Clear,0,2013-08-25 04:00:00
6:30 AM,60.8,51.8,72,29.89,-9999.0,Variable,1.2,-,N/A,,Clear,0,2013-08-25 04:30:00
7:00 AM,62.6,53.6,72,29.89,-9999.0,Variable,1.2,-,N/A,,Clear,0,2013-08-25 05:00:00
7:30 AM,64.4,53.6,68,29.89,-9999.0,Variable,3.5,-,N/A,,Clear,0,2013-08-25 05:30:00
8:00 AM,66.2,51.8,60,29.89,-9999.0,NE,4.6,-,N/A,,Clear,40,2013-08-25 06:00:00
8:30 AM,68.0,51.8,56,29.89,-9999.0,ENE,6.9,-,N/A,,Clear,60,2013-08-25 06:30:00
9:00 AM,68.0,50.0,52,29.89,-9999.0,East,9.2,-,N/A,,Clear,80,2013-08-25 07:00:00
9:30 AM,69.8,50.0,49,29.89,-9999.0,East,10.4,-,N/A,,Clear,80,2013-08-25 07:30:00
10:00 AM,71.6,51.8,50,29.89,-9999.0,East,10.4,-,N/A,,Clear,80,2013-08-25 08:00:00
10:30 AM,71.6,50.0,46,29.89,-9999.0,East,9.2,-,N/A,,Clear,80,2013-08-25 08:30:00
11:00 AM,73.4,51.8,47,29.89,-9999.0,ESE,8.1,-,N/A,,Clear,120,2013-08-25 09:00:00
11:30 AM,77.0,51.8,41,29.89,-9999.0,East,8.1,-,N/A,,Clear,90,2013-08-25 09:30:00
12:00 PM,75.2,46.4,36,29.89,-9999.0,ESE,9.2,-,N/A,,Clear,120,2013-08-25 10:00:00
12:30 PM,77.0,48.2,36,29.89,-9999.0,East,9.2,-,N/A,,Clear,100,2013-08-25 10:30:00
1:00 PM,78.8,50.0,36,29.89,-9999.0,ESE,8.1,-,N/A,,Clear,120,2013-08-25 11:00:00
1:30 PM,78.8,50.0,36,29.86,-9999.0,SE,9.2,-,N/A,,Clear,130,2013-08-25 11:30:00
2:00 PM,78.8,50.0,36,29.86,-9999.0,ESE,10.4,-,N/A,,Clear,110,2013-08-25 12:00:00
2:30 PM,77.0,50.0,39,29.83,-9999.0,East,11.5,-,N/A,,Clear,100,2013-08-25 12:30:00
3:00 PM,78.8,50.0,36,29.83,-9999.0,East,11.5,-,N/A,,Clear,90,2013-08-25 13:00:00
3:30 PM,78.8,50.0,36,29.83,-9999.0,East,12.7,-,N/A,,Clear,80,2013-08-25 13:30:00
4:00 PM,78.8,48.2,34,29.83,-9999.0,ESE,11.5,-,N/A,,Clear,110,2013-08-25 14:00:00
4:30 PM,78.8,50.0,36,29.83,-9999.0,East,9.2,-,N/A,,Clear,100,2013-08-25 14:30:00
5:00 PM,77.0,50.0,39,29.83,-9999.0,East,9.2,-,N/A,,Clear,90,2013-08-25 15:00:00
5:30 PM,77.0,50.0,39,29.83,-9999.0,East,6.9,-,N/A,,Clear,90,2013-08-25 15:30:00
6:00 PM,77.0,51.8,41,29.83,6.2,Variable,3.5,-,N/A,,Mostly Cloudy,0,2013-08-25 16:00:00
6:30 PM,75.2,55.4,50,29.83,6.2,Variable,2.3,-,N/A,Rain,Light Rain,0,2013-08-25 16:30:00
7:00 PM,71.6,57.2,60,29.86,6.2,West,9.2,-,N/A,Rain,Light Rain,280,2013-08-25 17:00:00
7:30 PM,66.2,60.8,83,29.86,6.2,NNW,6.9,-,N/A,Rain,Light Rain,330,2013-08-25 17:30:00
8:00 PM,66.2,62.6,88,29.86,6.2,NNE,5.8,-,N/A,Rain,Light Rain,30,2013-08-25 18:00:00
8:30 PM,66.2,60.8,83,29.86,6.2,ENE,8.1,-,N/A,,Mostly Cloudy,60,2013-08-25 18:30:00
9:00 PM,66.2,60.8,83,29.86,6.2,NE,8.1,-,N/A,Rain,Light Rain,50,2013-08-25 19:00:00
9:30 PM,64.4,60.8,88,29.86,6.2,ENE,8.1,-,N/A,,Mostly Cloudy,60,2013-08-25 19:30:00
10:00 PM,64.4,60.8,88,29.86,6.2,ENE,8.1,-,N/A,,Mostly Cloudy,60,2013-08-25 20:00:00
10:30 PM,64.4,60.8,88,29.86,6.2,ENE,6.9,-,N/A,,Mostly Cloudy,60,2013-08-25 20:30:00
11:00 PM,62.6,60.8,94,29.86,6.2,Variable,2.3,-,N/A,,Scattered Clouds,0,2013-08-25 21:00:00
11:30 PM,62.6,60.8,94,29.86,6.2,Variable,3.5,-,N/A,,Mostly Cloudy,0,2013-08-25 21:30:00